FW0097 Weather Reports


Display with metric or nautical units.
time (UTC)temp
F
wind
direction
speed
MPH
gust
MPH
rain 1hr
in
rain 24hr
in
rain mn
in
humidity
%
barometer
mb
20191120001528 46 360 0.0 4.0 0.00 0.00 0.00 80 1018.9
20191120000017 47 126 0.0 4.0 0.00 0.00 0.00 79 1019.0
20191119234514 47 136 2.0 7.0 0.00 0.00 0.00 79 1019.1
20191119233034 47 125 1.0 3.0 0.00 0.00 0.00 78 1019.1
20191119231512 47 334 1.0 3.0 0.00 0.00 0.00 78 1019.1
20191119230006 47 334 1.0 6.0 0.00 0.00 0.00 77 1019.3
20191119224502 47 317 2.0 8.0 0.00 0.00 0.00 79 1019.4
20191119223005 46 319 3.0 8.0 0.00 0.00 0.00 78 1019.6
20191119221753 47 307 3.0 7.0 0.00 0.00 0.00 77 1019.7
20191119220219 49 44 1.0 6.0 0.00 0.00 0.00 76 1019.6
20191119214738 49 115 2.0 8.0 0.00 0.00 0.00 77 1019.6
20191119213225 50 12 1.0 4.0 0.00 0.00 0.00 73 1019.7
20191119211654 52 53 3.0 13.0 0.00 0.00 0.00 72 1019.7
20191119210146 47 61 3.0 14.0 0.00 0.00 0.00 77 1019.8
20191119204653 48 96 1.0 3.0 0.00 0.00 0.00 76 1020.0
20191119203337 48 129 0.0 4.0 0.00 0.00 0.00 74 1019.9
20191119201718 47 113 1.0 3.0 0.00 0.00 0.00 76 1019.8
20191119194749 48 259 0.0 3.0 0.00 0.00 0.00 74 1019.8
20191119193154 49 222 0.0 3.0 0.00 0.00 0.00 72 1019.7
20191119191746 49 222 0.0 4.0 0.00 0.00 0.00 72 1019.7
20191119190225 49 169 1.0 7.0 0.00 0.00 0.00 72 1019.8
20191119184651 50 175 3.0 7.0 0.00 0.01 0.00 71 1019.7
20191119183301 50 134 3.0 8.0 0.00 0.01 0.00 71 1019.7
20191119181644 50 141 2.0 5.0 0.00 0.01 0.00 71 1019.8
20191119180208 50 219 2.0 5.0 0.00 0.01 0.00 71 1019.8
20191119174909 50 120 0.0 2.0 0.00 0.01 0.00 70 1019.8
20191119173203 51 120 1.0 4.0 0.00 0.01 0.00 69 1019.8
20191119171640 50 186 1.0 3.0 0.00 0.01 0.00 69 1019.8
20191119170203 51 181 1.0 3.0 0.00 0.01 0.00 69 1019.7
20191119164735 50 25 0.0 4.0 0.00 0.01 0.00 69 1019.8
20191119163350 50 223 1.0 2.0 0.00 0.01 0.00 69 1019.8
20191119161741 51 222 0.0 2.0 0.00 0.01 0.00 67 1019.7
20191119160128 51 222 0.0 2.0 0.00 0.01 0.00 67 1019.7
20191119154705 51 269 1.0 3.0 0.00 0.01 0.00 67 1019.7
20191119153236 52 262 1.0 3.0 0.00 0.01 0.00 66 1019.6
20191119151635 52 262 1.0 4.0 0.00 0.01 0.00 67 1019.6
20191119150143 52 5 3.0 4.0 0.00 0.01 0.00 68 1019.5
20191119144558 0 0.0 0.0 0.00 0.01 0.00 1019.5
20191119143155 0 0.0 0.0 0.00 0.01 0.00 1019.4
20191119141541 0 0.0 0.0 0.00 0.01 0.00 1019.4
20191119140141 0 0.0 0.0 0.00 0.01 0.00 1019.3
20191119133037 0 0.0 0.0 0.00 0.02 0.00 1019.2
20191119131538 0 0.0 0.0 0.00 0.02 0.00 1019.2
20191119130030 53 330 1.0 4.0 0.00 0.02 0.00 65 1019.4
20191119124540 0 0.0 0.0 0.00 0.02 0.00 1019.6
20191119123021 0 0.0 0.0 0.00 0.02 0.00 1019.7
20191119121514 0 0.0 0.0 0.00 0.02 0.00 1019.9
20191119120034 0 0.0 0.0 0.00 0.02 0.00 1019.9
20191119114502 52 333 1.0 7.0 0.00 0.09 0.00 67 1020.0
20191119113004 52 332 1.0 7.0 0.00 0.09 0.00 66 1020.1
20191119111723 53 144 2.0 8.0 0.00 0.09 0.00 65 1020.4
20191119110246 53 132 5.0 11.0 0.00 0.09 0.00 65 1020.6
20191119104708 52 149 7.0 13.0 0.00 0.11 0.00 65 1020.7
20191119103154 52 96 5.0 12.0 0.00 0.11 0.00 65 1020.8
20191119101643 52 150 5.0 10.0 0.00 0.11 0.00 66 1021.0
20191119100244 51 126 3.0 14.0 0.00 0.11 0.00 68 1021.1
20191119094710 50 84 4.0 12.0 0.00 0.11 0.00 71 1021.2
20191119093130 47 87 1.0 5.0 0.00 0.11 0.00 78 1021.6
20191119090139 45 338 2.0 5.0 0.00 0.11 0.00 80 1021.6
20191119084653 45 311 2.0 5.0 0.00 0.11 0.00 79 1021.5
20191119083108 45 355 2.0 5.0 0.00 0.11 0.00 79 1021.6
20191119081624 44 329 3.0 5.0 0.00 0.11 0.00 81 1021.6
20191119080112 43 5 3.0 5.0 0.00 0.11 0.00 82 1021.6
20191119074600 43 344 3.0 5.0 0.00 0.11 0.00 81 1021.7
20191119073155 0 0.0 0.0 0.00 0.11 0.00 1021.7
20191119071615 0 0.0 0.0 0.00 0.11 0.00 1021.6
20191119070051 44 335 3.0 5.0 0.00 0.11 0.00 78 1021.5
20191119064541 45 340 2.0 12.0 0.00 0.11 0.00 75 1021.6
20191119061557 51 132 5.0 17.0 0.00 0.11 0.00 67 1021.2
20191119060047 50 84 7.0 17.0 0.00 0.11 0.00 69 1020.9
20191119054531 48 129 3.0 11.0 0.00 0.11 0.00 72 1020.9
20191119053113 49 53 2.0 17.0 0.00 0.11 0.00 70 1020.7
20191119051531 49 161 6.0 18.0 0.00 0.11 0.00 71 1020.4
20191119050036 48 106 3.0 16.0 0.00 0.11 0.00 74 1020.4
20191119044521 50 112 9.0 18.0 0.00 0.11 0.00 69 1020.3
20191119043010 47 69 4.0 12.0 0.00 0.11 0.00 74 1020.1
20191119041522 48 107 3.0 10.0 0.00 0.11 0.00 72 1020.3
20191119040009 49 13 4.0 17.0 0.00 0.11 0.00 72 1020.3
20191119034508 46 279 3.0 11.0 0.00 0.11 0.00 77 1020.3